Regional Weather Roundup
Issued by NWS Newport/Morehead, NC

Current Version | Previous Version | Text Only | Print | Product List | Glossary Off
Versions: 1 2 3 4 5 6 7 8 9 10 11 12 13 14 15 16 17 18 19 20 21 22 23 24 25 26 27 28 29 30 31 32 33 34 35 36 37 38 39 40 41 42 43 44 45 46 47 48 49 50
000 ASUS42 KMHX 311613 RWRMHX WEATHER ROUNDUP FOR EASTERN NORTH CAROLINA NATIONAL WEATHER SERVICE NEWPORT/MOREHEAD CITY NC 1200 PM EDT FRI JUL 31 2015 NOTE: "FAIR" INDICATES FEW OR NO CLOUDS BELOW 12,000 FEET WITH NO SIGNIFICANT WEATHER AND/OR OBSTRUCTIONS TO VISIBILITY NCZ015>017-031-032-045>047-102-103-311700- NORTH COAST CITY SKY/WX TMP DP RH WIND PRES REMARKS EDENTON N/A 83 72 68 NE10 29.93R ELIZABETH CITY MOSUNNY 86 73 65 N13 29.92R KITTY HAWK SUNNY 86 72 63 N6G16 29.90R MANTEO SUNNY 84 73 68 NE15 29.90S $$ NCZ045>047-081-094-103-104-311700- CENTRAL COAST CITY SKY/WX TMP DP RH WIND PRES REMARKS FRISCO MOSUNNY 87 76 69 VRB5 29.89R SWANQUARTER N/A 84 N/A N/A NW3G12 29.88R $$ NCZ095-097-098-100-101-311700- SOUTHERN COAST CITY SKY/WX TMP DP RH WIND PRES REMARKS BEAUFORT MOSUNNY 87 78 74 NW8 29.91R HX 100 CEDAR ISLAND N/A 86 N/A N/A NW10 29.94S JACKSONVILLE PTSUNNY 84 75 74 NE3 29.92R PINEY ISLAND MOSUNNY N/A N/A N/A MISG 29.91R WILMINGTON PTSUNNY 87 76 69 CALM 29.93R $$ NCZ011>013-027>030-043-044-078>080-089-090>093-098-311700- COASTAL PLAIN CITY SKY/WX TMP DP RH WIND PRES REMARKS AHOSKIE SUNNY 83 69 61 N9 29.94S CLINTON SUNNY 88 71 57 NE6 29.95S ELIZABETHTOWN SUNNY 88 69 53 NE3 29.95R GOLDSBORO SUNNY 88 70 55 N8G20 29.93R GREENVILLE MOSUNNY 86 72 62 NE8 29.95S HAVELOCK PTSUNNY 88 77 69 NW5 29.92R HX 100 KENANSVILLE SUNNY N/A N/A N/A N7 29.95R KINSTON MOSUNNY 88 72 58 NE12 29.95R NEW BERN PTSUNNY 86 74 67 N9 29.93R RICHLANDS MOSUNNY 88 73 62 NW8 29.92S ROCKY MOUNT SUNNY 89 65 44 N13 29.95S WASHINGTON SUNNY 83 73 71 N9 29.93R WHITEVILLE MOSUNNY 87 74 63 NE6 29.95R $$ AMZ130-135-150-152-154-156-158-170-250-252-270-ANZ085-086-088-633-658-670-311700- MARINE OBSERVATIONS STATION/POSITION TIME TEMP WIND PRES WAVE SWELL AIR SEA DIR/SP/G HT/PER HT/PER (UTC) (F) (DEG/KT/KT) (MB) (FT/S) (FT/S) CHESAPEAKE LIGHT 1500 81 20/ 21/ 22 1013.3 64 E VA BEACH 1550 80 81 10/ 14/ 16 1011.9 4/ 8 3/ 8 DUCK 1500 74 64 30/ 11/ 11 1011.8 2 E DUCK 1511 74 N/A 3/ 4 OREGON INLET 1500 81 83 10/ 9/ 11 1011.8 13E OREGON INLT 1600 82 N/A 4/ 7 2/11 HATTERAS CG 1500 83 82 360/ 10/ 11 1011.4 DIAMOND BUOY 1550 82 86 10/ 10/ 14 1011.9 4/ 9 3/ 9 CAPE LOOKOUT 1600 87 120/ 1/ 2 1012.4 BEAUFORT LAB 1500 85 82 360/ 5/ 7 1011.6 30 SE NEW RVR IN NOT AVBL 27 SE WRIGHTSVLE 1500 80 83 310/ 2/ 2 N/A 5 SE WRIGHTSVLE 1508 82 83 340/ 2/ 4 1013.3 225 S CAPE HAT 1550 81 81 250/ 19/ 21 1015.6 8/ 8 41 SE CHARLESTON 1550 80 84 240/ 14/ 16 1014.0 2/ 8 2/ 8 $$

USA.gov is the U.S. government's official web portal to all federal, state and local government web resources and services.